www.pogodaiklimat.ru

Погода и климат >> Архив погоды >> Италия >> Вьесте


ПОГОДА во Вьесте

  • Прогноз погоды во Вьесте
  • Монитор погоды во Вьесте

АРХИВ ПОГОДЫ во Вьесте

Время (UTC), дата Ветер
(напр.,м/с)
 
Видим.   Явления Облачность Т
(С)
Тd
(С)
f
(%)
Тe
(С)
Тes
(С)
Комфортность P
(гПа)
Po
(гПа)
Тmin
(С)
Tmax
(С)
R
(мм)
R24
(мм)
S
(см)
22 18.06 СЗ 1 н/о н/о +22.6 +16.3 68 +27 +27 душно 1014.5 1014.0
23 18.06 З 1 н/о н/о +22.2 +16.6 71 +27 +27 душно 1014.1 1013.6
00 19.06 штиль 0 н/о н/о +21.4 +15.8 70 +25 +25 комфорт 1014.1 1013.6
01 19.06 З 1 н/о н/о +21.4 +16.5 74 +25 +25 комфорт 1013.7 1013.2
02 19.06 З 1 н/о н/о +20.8 +15.5 72 +25 +25 комфорт 1013.3 1012.8
03 19.06 З 1 н/о н/о +20.6 +15.1 71 +25 +25 комфорт 1013.3 1012.8
04 19.06 штиль 0 н/о н/о +20.2 +14.7 71 +22 +22 комфорт 1013.4 1012.9
05 19.06 штиль 0 н/о н/о +23.2 +16.9 68 +28 +28 душно 1013.4 1012.9
06 19.06 СВ 2 н/о н/о +25.4 +20.6 75 +32 +32 очень
душно
1013.6 1013.1 +20.0 404
07 19.06 СВ 2 н/о н/о +25.7 +21.7 79 +33 +33 очень
душно
1013.9 1013.4
08 19.06 СВ 2 н/о н/о +26.0 +22.0 79 +34 +34 очень
душно
1013.9 1013.4
09 19.06 В 2 н/о н/о +26.9 +21.6 73 +34 +34 очень
душно
1014.0 1013.5
10 19.06 В 3 н/о н/о +27.4 +22.1 73 +36 +36 очень
душно
1014.0 1013.5
11 19.06 В 3 н/о н/о +27.9 +21.4 68 +36 +36 очень
душно
1014.0 1013.5
12 19.06 ЮВ 3 н/о н/о +28.3 +21.0 65 +36 +36 очень
душно
1013.6 1013.1
13 19.06 ЮВ 3 н/о н/о +28.2 +20.7 64 +35 +35 очень
душно
1013.2 1012.7
14 19.06 ЮВ 3 н/о н/о +28.7 +20.9 63 +36 +36 очень
душно
1012.4 1011.9
15 19.06 Ю 3 н/о н/о +28.7 +20.1 60 +35 +35 очень
душно
1012.3 1011.8
16 19.06 ЮВ 2 н/о н/о +27.5 +20.8 67 +34 +34 очень
душно
1011.9 1011.4
17 19.06 ЮВ 1 н/о н/о +27.5 +20.5 66 +34 +34 очень
душно
1012.0 1011.5
18 19.06 Ю 2 н/о н/о +26.5 +21.0 72 +33 +33 очень
душно
1012.3 1011.8 +29.3
19 19.06 ЮЗ 1 н/о н/о +26.1 +21.3 75 +33 +33 очень
душно
1012.4 1011.9
20 19.06 штиль 0 н/о н/о +24.6 +19.1 71 +30 +30 очень
душно
1012.9 1012.4
21 19.06 З 1 н/о н/о +24.3 +17.9 67 +28 +28 душно 1012.8 1012.3
22 19.06 штиль 0 н/о н/о +23.7 +17.6 69 +28 +28 душно 1012.8 1012.3
23 19.06 З 1 н/о н/о +23.6 +17.5 69 +28 +28 душно 1012.4 1011.9
00 20.06 штиль 0 н/о н/о +22.9 +15.9 65 +27 +27 душно 1012.3 1011.8
01 20.06 штиль 0 н/о н/о +22.3 +15.6 66 +26 +26 жарко 1012.2 1011.7
02 20.06 С 1 н/о н/о +22.0 +15.0 64 +25 +25 комфорт 1012.3 1011.8
03 20.06 СЗ 1 н/о н/о +22.4 +16.6 70 +27 +27 душно 1012.5 1012.0
04 20.06 СЗ 1 н/о н/о +22.7 +19.0 80 +29 +29 очень
душно
1012.6 1012.1
05 20.06 С 1 н/о н/о +24.7 +21.8 84 +32 +32 очень
душно
1012.9 1012.4
06 20.06 СЗ 1 н/о н/о +25.9 +22.3 81 +34 +34 очень
душно
1013.1 1012.6 +21.6 502
07 20.06 СВ 2 н/о н/о +26.5 +22.3 78 +35 +35 очень
душно
1013.2 1012.7
08 20.06 В 1 н/о н/о +27.3 +22.2 74 +36 +36 очень
душно
1013.3 1012.8
09 20.06 В 2 н/о н/о +28.2 +22.4 71 +37 +37 очень
душно
1013.4 1012.9
10 20.06 ЮЗ 3 н/о н/о +29.2 +23.1 70 +39 +39 очень
душно
1013.5 1013.0
11 20.06 Ю 2 н/о н/о +30.0 +22.1 63 +39 +39 очень
душно
1013.5 1013.0
12 20.06 ЮВ 2 н/о н/о +30.4 +20.9 57 +38 +38 очень
душно
1013.3 1012.8
13 20.06 Ю 3 н/о н/о +30.6 +21.4 58 +39 +39 очень
душно
1013.1 1012.6
14 20.06 В 2 н/о н/о +29.7 +22.1 64 +39 +39 очень
душно
1012.6 1012.1
15 20.06 Ю 2 н/о н/о +29.6 +22.0 64 +38 +38 очень
душно
1012.2 1011.7
16 20.06 Ю 2 н/о н/о +29.5 +21.4 62 +37 +37 очень
душно
1012.0 1011.5
17 20.06 ЮЗ 2 н/о н/о +28.4 +21.4 66 +36 +36 очень
душно
1012.4 1011.9
18 20.06 ЮЗ 2 н/о н/о +27.5 +20.8 67 +34 +34 очень
душно
1012.3 1011.8 +30.9
19 20.06 З 1 н/о н/о +26.7 +20.5 69 +33 +33 очень
душно
1012.6 1012.1
20 20.06 ЮЗ 1 н/о н/о +25.5 +16.3 57 +29 +29 душно 1013.2 1012.7
21 20.06 З 1 н/о н/о +25.0 +16.1 58 +28 +28 жарко 1013.3 1012.8
22 20.06 ЮЗ 1 н/о н/о +25.0 +16.9 61 +29 +29 душно 1013.4 1012.9
23 20.06 ЮЗ 1 н/о н/о +24.0 +16.2 62 +27 +27 жарко 1013.5 1013.0
00 21.06 СЗ 1 н/о н/о +23.9 +15.8 60 +27 +27 жарко 1013.5 1013.0
01 21.06 С 1 н/о н/о +23.5 +15.7 62 +27 +27 душно 1013.9 1013.4
02 21.06 штиль 0 н/о н/о +23.6 +17.5 69 +28 +28 душно 1013.7 1013.2
03 21.06 З 1 н/о н/о +23.2 +16.2 65 +28 +28 душно 1013.8 1013.3
04 21.06 ЮЗ 1 н/о н/о +23.0 +16.5 67 +28 +28 душно 1014.1 1013.6
05 21.06 штиль 0 н/о н/о +25.6 +18.7 66 +31 +31 очень
душно
1014.2 1013.7
06 21.06 Ю 1 н/о н/о +28.2 +21.4 67 +36 +36 очень
душно
1014.6 1014.1 +22.6 1
07 21.06 СВ 4 н/о н/о +27.5 +21.9 72 +36 +36 очень
душно
1015.0 1014.5
08 21.06 СВ 3 н/о н/о +27.5 +23.3 78 +37 +37 очень
душно
1015.2 1014.7
09 21.06 В 2 н/о н/о +28.6 +23.2 73 +39 +39 очень
душно
1015.6 1015.1
10 21.06 Ю 3 н/о н/о +28.6 +23.0 72 +38 +38 очень
душно
1015.6 1015.1
11 21.06 Ю 3 н/о н/о +30.4 +22.8 64 +40 +40 очень
душно
1015.4 1014.9
12 21.06 Ю 3 н/о н/о +30.4 +23.0 65 +41 +41 опасность
перегрева
1015.3 1014.8
13 21.06 Ю 4 н/о н/о +29.9 +23.3 68 +40 +40 очень
душно
1015.0 1014.5
14 21.06 З 4 н/о н/о +29.5 +22.9 68 +39 +39 очень
душно
1014.6 1014.1
15 21.06 Ю 3 н/о н/о +29.1 +22.3 67 +38 +38 очень
душно
1014.3 1013.8
16 21.06 Ю 3 н/о н/о +29.1 +20.5 60 +36 +36 очень
душно
1014.1 1013.6
17 21.06 ЮЗ 3 н/о н/о +29.1 +19.1 55 +35 +35 очень
душно
1013.8 1013.3
18 21.06 ЮЗ 2 н/о н/о +28.8 +18.5 54 +34 +34 очень
душно
1014.5 1014.0 +30.9
19 21.06 ЮЗ 2 н/о н/о +28.1 +18.7 57 +33 +33 очень
душно
1014.8 1014.3
20 21.06 Ю 2 н/о н/о +27.2 +17.0 54 +31 +31 душно 1014.4 1013.9
21 21.06 Ю 1 н/о н/о +25.9 +15.5 53 +29 +29 душно 1014.6 1014.1
22 21.06 Ю 1 н/о н/о +25.6 +15.2 53 +29 +29 душно 1014.8 1014.3
23 21.06 ЮЗ 1 н/о н/о +24.9 +14.6 53 +28 +28 жарко 1014.6 1014.1
00 22.06 штиль 0 н/о н/о +24.2 +13.9 53 +27 +27 жарко 1014.5 1014.0
01 22.06 З 1 н/о н/о +23.7 +14.6 57 +26 +26 жарко 1014.6 1014.1
02 22.06 З 1 н/о н/о +23.2 +15.4 62 +27 +27 душно 1014.4 1013.9
03 22.06 СЗ 1 н/о н/о +23.4 +15.6 62 +28 +28 душно 1014.3 1013.8
04 22.06 З 2 н/о н/о +23.7 +16.7 65 +27 +27 жарко 1014.3 1013.8
05 22.06 штиль 0 н/о н/о +24.1 +18.7 72 +29 +29 душно 1014.4 1013.9
06 22.06 С 1 н/о н/о +26.5 +23.1 82 +36 +36 очень
душно
1014.7 1014.2 +23.1 601
07 22.06 СВ 1 н/о н/о +26.9 +22.0 75 +35 +35 очень
душно
1015.8 1015.3
08 22.06 СВ 5 н/о н/о +27.0 +22.6 77 +36 +36 очень
душно
1015.9 1015.4
09 22.06 С 3 н/о н/о +26.7 +21.8 75 +34 +34 очень
душно
1016.1 1015.6
10 22.06 СВ 2 н/о н/о +26.7 +23.7 84 +37 +37 очень
душно
1015.2 1014.7
11 22.06 СВ 2 н/о н/о +26.8 +24.0 85 +37 +37 очень
душно
1016.0 1015.5
12 22.06 Ю 3 н/о н/о +28.6 +25.8 85 +43 +43 опасность
перегрева
1013.8 1013.3
13 22.06 ЮЗ 3 н/о н/о +28.5 +24.7 80 +41 +41 опасность
перегрева
1014.2 1013.7
14 22.06 Ю 4 н/о н/о +28.5 +24.5 79 +40 +40 очень
душно
1013.2 1012.7
15 22.06 Ю 4 н/о н/о +28.7 +24.0 76 +40 +40 очень
душно
1012.9 1012.4
16 22.06 ЮЗ 4 н/о н/о +28.3 +25.1 83 +41 +41 опасность
перегрева
1012.6 1012.1
17 22.06 ЮЗ 4 н/о н/о +27.9 +26.1 90 +42 +42 опасность
перегрева
1012.4 1011.9
18 22.06 Ю 3 н/о н/о +26.8 +24.4 87 +38 +38 очень
душно
1012.2 1011.7 +29.2
19 22.06 ЮЗ 3 н/о н/о +27.2 +18.7 60 +32 +32 очень
душно
1011.7 1011.2
20 22.06 Ю 2 н/о н/о +27.7 +16.9 52 +32 +32 очень
душно
1011.5 1011.0
21 22.06 Ю 1 н/о н/о +27.1 +15.1 48 +30 +30 душно 1011.2 1010.7
22 22.06 С 1 н/о н/о +25.6 +17.7 62 +30 +30 душно 1011.3 1010.8
23 22.06 штиль 0 н/о н/о +25.1 +20.5 76 +31 +31 очень
душно
1011.0 1010.5
00 23.06 ЮЗ 1 н/о н/о +25.4 +17.0 60 +29 +29 душно 1010.8 1010.3
01 23.06 З 1 н/о н/о +26.0 +15.9 54 +29 +29 душно 1011.1 1010.6
02 23.06 С 2 н/о н/о +26.0 +21.6 77 +33 +33 очень
душно
1011.6 1011.1
03 23.06 С 3 н/о н/о +25.5 +21.7 80 +33 +33 очень
душно
1011.3 1010.8
04 23.06 С 4 н/о н/о +25.3 +22.7 86 +33 +33 очень
душно
1011.5 1011.0
05 23.06 С 3 н/о н/о +25.2 +22.2 83 +33 +33 очень
душно
1012.0 1011.5
06 23.06 С 4 н/о н/о +25.4 +21.6 80 +33 +33 очень
душно
1012.3 1011.8 +24.8 106
07 23.06 СЗ 5 н/о н/о +26.3 +21.2 74 +33 +33 очень
душно
1012.6 1012.1
08 23.06 С 5 н/о н/о +27.2 +20.0 65 +33 +33 очень
душно
1013.1 1012.6
09 23.06 С 7 н/о н/о +27.1 +20.6 68 +34 +34 очень
душно
1013.6 1013.1
10 23.06 СВ 8 н/о н/о +26.1 +20.8 73 +33 +33 очень
душно
1014.1 1013.6
11 23.06 С 8 н/о н/о +25.8 +21.4 77 +33 +33 очень
душно
1014.6 1014.1
12 23.06 С 7 н/о н/о +26.3 +21.0 73 +33 +33 очень
душно
1014.5 1014.0
13 23.06 С 8 н/о н/о +25.8 +20.8 74 +32 +32 очень
душно
1014.4 1013.9
14 23.06 С 6 н/о н/о +26.0 +21.2 75 +33 +33 очень
душно
1014.2 1013.7
15 23.06 СВ 5 н/о н/о +26.1 +20.8 73 +33 +33 очень
душно
1014.3 1013.8
16 23.06 СВ 6 н/о н/о +26.1 +19.7 68 +32 +32 очень
душно
1014.4 1013.9
17 23.06 С 5 н/о н/о +25.5 +20.5 74 +32 +32 очень
душно
1014.3 1013.8
18 23.06 С 3 н/о н/о +24.9 +20.1 75 +31 +31 очень
душно
1014.6 1014.1 +28.3
19 23.06 СЗ 3 н/о н/о +24.4 +19.8 76 +30 +30 очень
душно
1014.7 1014.2
20 23.06 С 2 н/о н/о +24.2 +20.1 78 +30 +30 очень
душно
1015.2 1014.7
21 23.06 С 3 н/о н/о +24.1 +20.0 78 +30 +30 очень
душно
1015.5 1015.0
22 23.06 С 1 н/о н/о +23.8 +19.7 78 +29 +29 душно 1015.6 1015.1
23 23.06 С 1 н/о н/о +23.4 +19.5 79 +30 +30 очень
душно
1015.5 1015.0
00 24.06 С 3 н/о н/о +23.3 +19.0 77 +30 +30 очень
душно
1015.4 1014.9
01 24.06 СЗ 3 н/о н/о +23.3 +18.5 74 +29 +29 душно 1015.4 1014.9
02 24.06 СЗ 3 н/о н/о +23.3 +19.0 77 +30 +30 очень
душно
1015.4 1014.9
03 24.06 СЗ 3 н/о н/о +23.0 +19.3 80 +29 +29 очень
душно
1015.1 1014.6
04 24.06 СЗ 3 н/о н/о +22.9 +19.6 82 +29 +29 очень
душно
1015.3 1014.8
05 24.06 СЗ 3 н/о н/о +24.2 +21.1 83 +31 +31 очень
душно
1015.3 1014.8
06 24.06 С 6 н/о н/о +25.3 +20.5 75 +31 +31 очень
душно
1015.6 1015.1 +22.8 610
07 24.06 СЗ 5 н/о н/о +26.3 +20.8 72 +33 +33 очень
душно
1015.6 1015.1
08 24.06 С 5 н/о н/о +27.0 +21.2 71 +34 +34 очень
душно
1015.8 1015.3
09 24.06 С 7 н/о н/о +26.7 +20.5 69 +33 +33 очень
душно
1015.9 1015.4
10 24.06 С 6 н/о н/о +27.3 +21.1 69 +34 +34 очень
душно
1016.3 1015.8
11 24.06 СВ 7 н/о н/о +27.0 +20.5 68 +34 +34 очень
душно
1016.6 1016.1
12 24.06 С 6 н/о н/о +27.4 +19.9 64 +34 +34 очень
душно
1016.5 1016.0
13 24.06 С 7 н/о н/о +27.6 +19.1 60 +33 +33 очень
душно
1016.3 1015.8
14 24.06 С 6 н/о н/о +27.0 +19.3 63 +33 +33 очень
душно
1016.2 1015.7
15 24.06 С 6 н/о н/о +27.3 +18.8 60 +32 +32 очень
душно
1016.2 1015.7
16 24.06 С 7 н/о н/о +27.0 +18.2 59 +32 +32 очень
душно
1016.3 1015.8
17 24.06 С 4 н/о н/о +26.6 +19.7 66 +32 +32 очень
душно
1016.6 1016.1
18 24.06 С 4 н/о н/о +25.8 +20.3 72 +32 +32 очень
душно
1016.9 1016.4 +28.1
19 24.06 СЗ 4 н/о н/о +25.1 +20.3 75 +31 +31 очень
душно
1016.9 1016.4
20 24.06 СЗ 4 н/о н/о +24.8 +19.1 71 +30 +30 душно 1017.3 1016.8
21 24.06 СЗ 3 н/о н/о +24.8 +19.3 71 +30 +30 душно 1017.5 1017.0
22 24.06 С 4 н/о н/о +24.8 +20.2 76 +31 +31 очень
душно
1017.3 1016.8
23 24.06 С 4 н/о н/о +24.7 +21.0 80 +31 +31 очень
душно
1017.1 1016.6
00 25.06 СЗ 4 н/о н/о +24.7 +22.3 87 +32 +32 очень
душно
1016.9 1016.4
01 25.06 С 3 н/о н/о +24.4 +22.8 91 +32 +32 очень
душно
1016.7 1016.2
02 25.06 СЗ 4 н/о н/о +24.2 +22.6 91 +32 +32 очень
душно
1016.7 1016.2
03 25.06 З 3 н/о н/о +24.1 +22.7 92 +32 +32 очень
душно
1016.7 1016.2
04 25.06 СЗ 3 н/о н/о +24.0 +22.4 91 +31 +31 очень
душно
1017.1 1016.6
05 25.06 С 4 н/о н/о +24.8 +23.0 90 +33 +33 очень
душно
1016.9 1016.4
06 25.06 СВ 4 н/о н/о +26.0 +22.6 82 +34 +34 очень
душно
1017.4 1016.9 +23.9 508
07 25.06 С 4 н/о н/о +27.1 +22.9 78 +36 +36 очень
душно
1017.8 1017.3
08 25.06 С 4 н/о н/о +28.5 +22.0 68 +37 +37 очень
душно
1018.2 1017.7
09 25.06 СВ 5 н/о н/о +28.6 +22.1 68 +37 +37 очень
душно
1018.6 1018.1
10 25.06 СВ 5 н/о н/о +29.4 +22.3 66 +38 +38 очень
душно
1018.8 1018.3
11 25.06 С 6 н/о н/о +29.0 +20.4 60 +36 +36 очень
душно
1019.2 1018.7
12 25.06 С 5 н/о н/о +30.3 +19.6 53 +36 +36 очень
душно
1019.3 1018.8
13 25.06 СВ 5 н/о н/о +30.4 +19.1 51 +36 +36 очень
душно
1019.3 1018.8
14 25.06 С 6 н/о н/о +29.9 +18.9 52 +35 +35 очень
душно
1019.4 1018.9
15 25.06 С 6 н/о н/о +29.3 +19.0 54 +35 +35 очень
душно
1019.3 1018.8
16 25.06 С 5 н/о н/о +29.5 +19.8 56 +36 +36 очень
душно
1019.0 1018.5
17 25.06 С 6 н/о н/о +27.7 +20.0 63 +34 +34 очень
душно
1019.2 1018.7
18 25.06 С 4 н/о н/о +26.7 +19.0 63 +32 +32 очень
душно
1019.5 1019.0 +30.9
19 25.06 С 3 н/о н/о +25.9 +18.5 64 +31 +31 очень
душно
1019.6 1019.1
20 25.06 СЗ 3 н/о н/о +25.5 +17.9 63 +30 +30 душно 1020.1 1019.6

 

Местоположение метеостанции Вьесте (Италия): широта 41.88 долгота 16.17 высота над уровнем моря 3 м.

В архиве по умолчанию представлена погода во Вьесте за последнюю неделю. Архивные данные за месяц целиком и за предыдущие месяцы, начиная с января 2011 года, Вы можете получить, выбрав интересующий диапазон дат из раскрывающегося списка и нажав кнопку "Ввод!".


*Определитесь, кто Вы:
робот инопланетянин человек

Внимание! Время в таблицах - всемирное. Для получения местного времени необходимо прибавить поправку, которая равна 1 ч.

Смотрите также архив погоды в соседних городах и на ближайших метеорологических станциях:

Погода в Монте-Сант-Анджело (Италия) (27 км)
Погода в Амендоле (Италия) (54 км)
Погода на Палагруже (Хорватия) (58 км)
Погода в Бари аэропорту (Италия) (98 км)
Погода в Термоли (Италия) (98 км)
Погода в Бари (Италия) (103 км)
Погода в Ластово (Хорватия) (116 км)
Погода в Тревико (Италия) (121 км)
Погода в Комице (Хорватия) (130 км)
Погода в Кампобассо (Италия) (131 км)

Пояснения к столбцам:

Ветер - указаны скорость ветра в м/с - средняя за 10 мин, порывы в срок и между сроками (в фигурных скобках) и направление, откуда дует ветер: С - северный, СВ - северо-восточный, В - восточный, ЮВ - юго-восточный, Ю - южный, ЮЗ - юго-западный, З - западный, СЗ - северо-западный.
Видимость - горизонтальная дальность видимости в метрах или километрах. При видимости от 1 до 10 км при отсутствии осадков обычно наблюдается дымка, при ухудшении видимости до 1 км и менее - туман. В сухую погоду видимость может ухудшаться дымом, пылью или мглою.
Явления - указаны атмосферные явления, наблюдавшиеся в срок или в последний час перед сроком; фигурными скобками обозначены явления, наблюдавшиеся между сроками (за 1-3 часа до срока); квадратными скобками обозначены град или гололедные отложения с указанием их диаметра в мм.
Облачность - указаны через наклонную черту общая и нижняя облачность в баллах и высота нижней границы облаков в метрах; квадратными скобками обозначены формы облаков: Ci - перистые, Cs - перисто-слоистые, Cc - перисто-кучевые, Ac - высококучевые, As - высокослоистые, Sc - слоисто-кучевые, Ns - слоисто-дождевые, Cu - кучевые, Cb - кучево-дождевые. Подробнее классификацию облаков см. в Атласе облаков (PDF).
T - Температура воздуха - температура, измеренная на высоте 2 м над землей.
Td - Температура точки росы - температура, при понижении до которой содержащийся в воздухе водяной пар достигнет насыщения.
f - Относительная влажность воздуха - влажноcть воздуха, измеренная на высоте 2 м над землей.
Te - Эффективная температура - температура, которую ощущает одетый по сезону человек в тени. Характеристика душности погоды. При расчете учитывается влияние влажности воздуха и скорости ветра на теплоощущения человека.
Tes - Эффективная температура на солнце - температура, которую ощущает человек, с поправкой на солнечный нагрев. Характеристика знойности погоды. Зависит от высоты солнца над горизонтом, облачности и скорости ветра. Ночью, в пасмурную погоду, а также при ветре 12 м/с и более поправка равна нулю.
P - Атмосферное давление - приведенное к уровню моря атмосферное давление.
Po - Атмосферное давление - измеренное на уровне метеостанции атмосферное давление.
Tmin - Минимальная температура - минимум температуры воздуха на высоте 2 м над землей.
Tmax - Максимальная температура - максимум температуры воздуха на высоте 2 м над землей.
R - Количество осадков - Количество выпавших осадков за период времени, мм. При наведении курсора мыши на число - период времени, за который выпало указанное количество осадков.
R24 - Количество осадков - Количество выпавших осадков за 24 часа, мм.
S - Снежный покров - Высота снежного покрова, см. При наведении курсора мыши на число - состояние снежного покрова и степень покрытия местности в баллах.